Flag for Finland Weather past 2 weeks in Joensuu, Finland

Now
55 °F

Sprinkles. Overcast.


Feels Like: 54 °F
Forecast: 55 / 62 °F
Wind: 6 mph from Southeast

Location: Joensuu Airport

Current Time: Aug 28, 2015 at 8:39:58 AM

Latest Report: Aug 28, 2015 at 7:50 AM


Visibility: N/A

Pressure: 29.83 "Hg

Humidity: 100%

Dew point: 55 °F

Location of JoensuuLocation

Historic Weather in Joensuu — Graph

°F

Joensuu temperature yesterday

Maximum temperature yesterday: 64 °F (at 2:50 PM)
Minimum temperature yesterday: 52 °F (at 11:50 PM)
Average temperature yesterday: 60 °F

Past Weeks' High & Low Weather Summary

 TemperatureHumidityPressure
High75 °F (Aug 24, 3:20 PM)100% (Aug 13, 7:50 AM)30.42 "Hg (Aug 13, 7:50 AM)
Low43 °F (Aug 17, 4:20 AM)29% (Aug 19, 2:50 PM)29.83 "Hg (Aug 26, 6:20 PM)
Average60 °F70%30.18 "Hg
* Reported Aug 13 6:20 AM — Aug 28 6:50 AM, Joensuu, Weather by CustomWeather, © 2015

Note: Actual official high and low records may vary slightly from our data, if they occured in-between our weather recording intervals... More about our weather records

Advertising

Joensuu weather history for previous 24 hours

 ConditionsComfort  
Time TempWeatherWind HumidityBarometerVisibility
6:50 AM
Fri, Aug 28
54 °FSunny.6 mph100%29.83 "Hg10 mi
5:50 AM52 °FFog.6 mph100%29.86 "Hg3 mi
5:20 AM52 °FFog.6 mph100%29.86 "Hg1 mi
4:50 AM52 °FLight fog.8 mph100%29.86 "Hg0 mi
4:20 AM50 °FClear.6 mph100%29.86 "Hg0 mi
3:50 AM50 °FLight fog.5 mph100%29.89 "Hg4 mi
3:20 AM48 °FLight fog.No wind100%29.89 "Hg0 mi
2:50 AM50 °FLight fog.2 mph100%29.89 "Hg0 mi
2:20 AM52 °FDense fog.No wind94%29.89 "Hg0 mi
1:50 AM50 °FLight fog.No wind100%29.89 "Hg0 mi
1:20 AM50 °FClear.No wind100%29.89 "Hg1 mi
12:50 AM52 °FClear.2 mph94%29.92 "HgN/A
12:20 AM52 °FClear.No wind94%29.92 "Hg10 mi
11:50 PM
Thu, Aug 27
52 °FClear.No wind100%29.92 "Hg10 mi
11:20 PM54 °FClear.No wind100%29.92 "Hg10 mi
10:50 PM55 °FClear.1 mph94%29.92 "Hg10 mi
10:20 PM59 °FClear.5 mph88%29.92 "Hg10 mi
9:50 PM59 °FClear.6 mph88%29.92 "Hg10 mi
9:20 PM61 °FSunny.2 mph83%29.89 "Hg10 mi
8:50 PM61 °FSunny.3 mph83%29.89 "Hg10 mi
8:20 PM63 °FSunny.2 mph77%29.89 "Hg10 mi
7:50 PM63 °FPartly sunny.2 mph77%29.89 "HgN/A
7:20 PM63 °FPartly sunny.2 mph77%29.92 "HgN/A
6:50 PM63 °FPartly sunny.3 mph77%29.92 "HgN/A
6:20 PM64 °FBroken clouds.5 mph73%29.92 "HgN/A
5:50 PM64 °FPassing clouds.5 mph73%29.92 "HgN/A
5:20 PM64 °FPartly sunny.6 mph73%29.92 "HgN/A
4:50 PM64 °FBroken clouds.7 mph73%29.89 "HgN/A
4:20 PM64 °FPartly sunny.3 mph78%29.89 "HgN/A
3:50 PM64 °FPartly sunny.3 mph78%29.89 "HgN/A
3:20 PM64 °FOvercast.6 mph78%29.89 "HgN/A
2:50 PM64 °FPartly sunny.8 mph78%29.89 "HgN/A
2:20 PM63 °FOvercast.7 mph83%29.89 "HgN/A
1:50 PM61 °FMostly cloudy.8 mph88%29.89 "HgN/A
1:20 PM63 °FBroken clouds.8 mph88%29.89 "HgN/A
12:50 PM63 °FPartly sunny.8 mph88%29.89 "HgN/A
12:20 PM63 °FPartly sunny.8 mph88%29.89 "HgN/A
11:50 AM63 °FOvercast.8 mph88%29.89 "HgN/A
11:20 AM63 °FMostly cloudy.7 mph88%29.86 "HgN/A
10:50 AM63 °FMostly cloudy.7 mph88%29.86 "HgN/A
10:20 AM63 °FPartly sunny.7 mph88%29.86 "HgN/A
9:50 AM59 °FPartly sunny.6 mph100%29.86 "Hg4 mi
9:20 AM57 °FLight rain. Fog.1 mph100%29.86 "Hg2 mi
8:50 AM57 °FOvercast.7 mph100%29.86 "HgN/A
8:20 AM57 °FOvercast.2 mph100%29.86 "HgN/A
Weather by CustomWeather, © 2015

See weather overviewHow to use our weather pages